Location: Braunsdorf
(50.7357°N, 11.9136°E)
Time: 08:26:52
(UTC+00:00)

USA 229 DEB - Pass Details

Date: 17 February 2020
Orbit: 988 x 1224 km, 63.4° (Epoch: 26 March)

Event Time Altitude Azimuth Distance (km) Brightness Sun altitude
Exits shadow 03:35:51 46° 211° (SSW) 1,548 4.2 -26.8°
Drops below altitude 10° 03:41:52 10° 166° (SSE) 3,145 6.1 -25.8°
Sets 03:44:44 0° 162° (SSE) 4,121 6.8 -25.4°
